Location: Ville-Marie
(47.3330°N, 79.4330°W)
Time: 16:29:38
(UTC-05:00)

ISS - Visible Passes

Search period start: 08 December 2023 00:00
Search period end: 18 December 2023 00:00
Orbit: 415 x 416 km, 51.6° (Epoch: 08 December)

Date Brightness Start Highest point End Pass type
(mag) Time Alt. Az. Time Alt. Az. Time Alt. Az.
15 Dec -0.9 07:09:27 10° S 07:12:05 22° SE 07:14:43 10° E visible
16 Dec -0.6 06:21:50 10° SSE 06:23:37 14° SE 06:25:24 10° ESE visible
17 Dec -2.7 07:08:00 10° SW 07:11:14 48° SSE 07:14:29 10° ENE visible
